Wind_Speed
15 14 12 11 9 8 7 5 4 4 3 3 3 2 1 1 1 3 4 4 5 6 7 7 8 8 9 9 9 9 10 11 11 12 13 14 14 15 15 16 17 17 17
16 15 14 12 10 8 7 6 5 4 4 3 3 2 1 1 2 3 4 5 5 6 7 7 8 9 9 10 10 10 11 12 13 14 14 15 15 16 17 17 18 18 18
16 15 14 13 11 9 7 6 5 5 4 4 3 2 1 1 2 3 4 5 6 6 7 8 8 9 10 10 10 11 12 13 14 15 15 16 16 17 18 18 18 18 19
17 15 14 13 11 10 8 7 7 6 5 4 3 2 2 2 3 4 5 6 6 7 7 8 9 9 10 11 11 12 13 14 15 15 16 17 17 18 18 19 19 19 20
18 16 14 13 12 11 10 9 8 7 6 5 4 3 3 3 4 5 6 6 7 7 8 8 9 10 10 11 12 13 13 14 15 16 17 18 18 19 20 20 21 21 21
20 17 15 14 13 12 11 10 9 8 7 5 4 4 4 4 5 5 6 7 7 8 8 9 9 10 11 11 12 13 14 15 16 17 18 19 20 20 21 21 22 22 22
22 19 17 16 15 14 13 11 10 9 7 6 6 5 5 5 5 6 7 7 8 8 9 9 9 10 11 12 13 14 15 16 17 18 19 20 21 21 22 23 23 23 23
24 21 19 18 17 15 14 13 11 10 9 8 7 6 6 6 6 7 8 8 9 9 10 10 10 11 12 13 14 15 16 17 18 19 20 21 22 22 23 24 24 25 25
26 23 21 19 18 17 16 14 13 11 10 9 8 8 7 7 8 8 9 9 9 10 10 11 12 12 13 14 15 16 17 18 19 20 21 22 23 24 24 25 26 26 26
28 25 23 21 20 19 17 16 14 13 11 10 9 9 9 9 9 10 10 10 11 11 11 12 13 14 14 15 16 17 18 19 20 21 22 23 24 25 26 26 27 27 28
30 27 25 23 21 20 19 18 16 14 13 12 11 10 10 11 11 11 11 11 12 12 12 13 14 15 16 17 18 19 19 20 22 23 23 24 25 26 27 28 28 29 29
32 29 27 25 23 22 21 19 18 16 14 13 12 12 12 12 12 12 12 12 13 13 13 14 15 16 17 18 19 20 21 22 23 24 25 26 27 28 29 30 30 31 31
35 32 29 28 26 24 23 21 20 18 16 15 14 14 14 14 14 14 14 14 14 14 15 15 16 17 18 20 21 22 23 24 25 26 27 28 29 30 31 31 32 32 33
37 34 32 30 28 27 25 24 22 20 18 17 16 16 16 16 16 16 16 16 16 16 16 17 18 19 20 21 23 24 25 26 28 29 30 31 31 32 33 33 34 34 34
38 36 34 32 31 29 28 26 25 23 21 20 19 19 18 18 18 18 18 18 18 18 19 19 20 21 22 23 25 26 27 28 29 31 32 33 34 34 35 35 36 36 36
40 38 37 35 34 32 31 29 27 26 24 23 22 22 21 21 21 21 21 21 21 21 21 22 23 24 25 26 27 28 29 30 31 33 34 35 36 37 37 37 37 37 37
41 40 39 37 36 35 34 32 30 29 28 27 26 25 24 24 24 23 24 24 24 24 24 25 26 27 28 29 30 31 32 33 34 35 36 37 38 39 39 39 39 38 38
42 40 40 39 38 37 36 35 34 32 31 30 29 28 27 27 26 26 27 27 27 27 27 28 29 30 30 31 32 33 34 35 36 38 39 40 40 40 40 40 40 39 38
42 41 41 41 40 40 39 38 37 36 34 33 32 31 30 29 29 29 29 30 30 30 30 31 32 32 33 34 35 36 37 37 39 40 41 42 42 42 42 41 41 40 39
44 43 42 42 42 42 42 41 40 38 37 36 35 34 33 33 32 32 32 32 32 33 33 34 34 35 35 36 37 38 39 40 41 42 43 43 43 43 43 43 42 41 39
46 45 44 43 44 44 44 43 42 41 40 39 38 37 37 36 35 35 35 35 35 35 36 36 37 38 38 39 40 41 41 42 42 44 44 45 45 45 44 43 42 40 39
49 48 47 46 46 45 45 45 44 44 43 42 41 40 40 39 39 38 38 38 38 38 38 39 40 40 40 41 43 43 43 43 43 44 45 46 46 45 44 43 42 41 40
51 50 50 50 49 47 47 46 46 46 45 45 44 43 42 42 41 41 41 40 40 40 40 41 42 42 43 44 44 45 46 46 45 44 44 44 45 44 44 43 42 41 41
52 52 51 51 51 50 49 49 48 48 47 47 46 46 45 44 44 43 43 43 42 42 42 43 43 44 45 45 45 46 47 48 48 47 44 43 43 43 43 42 41 41 42
52 53 53 52 52 51 51 51 50 50 49 49 49 48 47 47 46 46 45 44 44 44 44 45 45 46 46 47 47 47 48 48 48 48 46 44 43 42 42 41 41 41 42
51 51 51 51 51 51 51 51 51 50 50 50 49 49 49 48 48 47 46 46 46 46 46 46 46 47 47 48 48 48 48 48 47 46 45 44 43 42 41 41 42 42 42
Wind_Direction
227 228 227 226 225 226 229 237 242 246 245 240 236 235 240 298 354 4 3 0 359 356 352 349 348 347 346 344 343 341 339 337 336 334 333 331 330 329 329 329 328 328 326
230 231 232 233 232 232 236 242 246 247 246 243 237 231 234 313 347 355 355 354 354 352 348 347 346 345 344 342 341 341 340 339 337 336 334 333 331 329 328 327 327 326 324
232 233 235 236 235 235 238 240 241 241 240 240 234 231 255 312 334 346 349 349 349 347 345 343 341 341 341 340 340 339 339 338 336 335 334 333 332 329 327 326 324 323 322
232 235 237 238 237 236 236 236 237 234 231 230 230 239 270 305 325 335 341 344 344 342 341 338 337 337 338 338 337 337 337 337 336 334 333 332 330 329 327 325 323 321 319
233 234 235 236 235 233 231 232 230 227 224 224 233 251 274 299 316 328 334 339 339 338 337 336 335 336 337 336 335 335 335 335 335 334 333 332 330 328 327 325 323 321 318
232 232 233 233 232 228 226 226 225 224 223 227 238 257 276 294 310 320 327 332 335 335 334 333 332 333 334 335 334 334 334 334 334 333 333 331 330 328 327 325 323 320 318
232 231 231 230 228 225 222 222 222 223 226 233 244 258 271 286 301 312 320 325 329 331 331 330 330 331 331 332 332 332 332 333 333 332 332 331 330 328 327 325 323 320 318
234 232 230 227 225 223 221 220 221 224 230 239 248 259 270 282 295 306 314 320 323 326 327 327 328 328 328 329 330 330 331 331 331 330 330 329 328 327 326 324 323 321 319
236 234 230 226 225 223 221 221 222 226 232 240 250 261 271 282 292 303 310 314 318 321 324 325 325 325 325 326 327 328 329 329 328 328 328 327 326 325 324 323 322 320 319
236 235 231 227 225 223 221 221 224 228 233 240 249 259 269 279 288 297 304 309 312 316 319 321 322 322 322 323 324 324 325 325 325 325 324 324 323 323 322 321 320 319 317
236 235 232 229 226 224 223 223 225 230 235 241 248 257 265 274 282 290 297 302 305 309 313 315 316 316 317 318 318 319 320 320 321 321 320 320 319 319 318 318 317 316 315
235 235 233 230 227 227 226 226 228 232 237 243 249 256 262 269 276 283 288 293 297 300 304 306 307 309 310 312 313 314 315 316 317 317 316 316 316 316 315 315 315 314 313
234 234 233 231 229 229 229 230 232 235 240 245 250 256 261 267 273 279 283 287 290 294 296 298 300 303 305 307 309 310 312 313 314 314 314 314 313 313 313 313 312 312 311
234 234 233 232 231 231 232 234 236 239 243 248 253 258 263 267 272 277 281 285 288 291 293 294 297 299 301 303 305 307 309 310 311 312 312 312 312 312 311 311 311 310 309
234 235 234 234 234 233 234 236 239 242 246 251 255 259 263 267 272 276 280 284 287 289 291 292 294 296 298 300 302 305 307 308 309 310 310 310 310 310 310 310 309 309 308
234 235 235 235 236 235 236 238 241 245 249 253 257 260 264 267 272 276 280 283 286 288 289 290 292 294 295 298 300 303 304 306 307 308 308 308 308 309 309 308 308 307 307
233 234 236 236 237 237 238 239 242 246 250 254 257 261 265 268 272 276 280 282 284 286 287 289 290 292 293 295 298 301 303 304 305 306 306 306 307 307 307 307 306 306 305
233 235 236 237 237 238 240 241 243 246 250 254 257 261 265 269 272 276 279 281 282 284 286 287 289 291 292 294 297 299 301 303 304 305 305 306 306 306 306 305 304 304 303
233 236 237 237 238 239 241 243 245 248 251 255 258 261 264 268 272 275 277 279 281 283 284 286 288 289 291 293 296 298 300 302 303 304 304 305 306 305 304 304 303 302 302
234 237 239 239 240 240 242 244 246 248 252 255 258 261 265 268 271 274 276 279 281 282 283 284 286 287 289 292 294 297 299 301 303 303 303 304 304 303 303 302 302 301 301
235 237 239 241 242 242 242 243 246 248 252 255 258 262 265 268 271 274 276 278 280 281 282 284 285 287 289 291 294 296 297 300 301 302 302 303 302 302 301 301 300 300 299
236 237 239 241 243 244 244 244 246 248 252 255 259 262 265 268 271 274 275 277 278 280 281 282 284 286 288 291 293 294 296 297 299 300 301 301 300 300 299 299 298 298 297
237 239 241 242 243 245 246 246 247 250 252 256 259 262 265 268 271 273 275 276 277 278 279 281 284 286 288 290 292 294 296 297 297 298 297 298 298 298 297 297 297 296 296
239 241 242 243 244 246 247 248 250 251 254 256 259 262 264 267 269 271 273 274 275 277 278 280 282 285 288 289 291 293 295 296 297 298 297 296 295 295 295 295 295 295 296
240 241 243 245 246 247 248 249 251 252 254 257 259 261 263 265 267 269 270 272 273 275 277 279 282 284 286 288 290 292 294 295 296 296 296 296 295 294 294 294 294 295 296
239 241 242 244 245 247 249 250 252 253 255 257 258 260 262 264 265 267 268 270 272 274 276 279 281 283 285 288 290 291 293 294 294 294 295 295 295 294 294 293 293 294 296
Height
5897 5898 5899 5900 5901 5902 5903 5903 5903 5904 5904 5904 5904 5904 5904 5904 5903 5903 5903 5902 5901 5901 5900 5899 5898 5897 5896 5895 5894 5893 5892 5890 5889 5887 5886 5884 5883 5881 5879 5877 5876 5874 5872
5895 5896 5898 5899 5900 5901 5901 5902 5902 5903 5903 5903 5903 5903 5903 5903 5903 5902 5902 5901 5901 5900 5899 5898 5897 5896 5895 5894 5893 5892 5891 5889 5888 5886 5885 5883 5881 5880 5878 5876 5874 5872 5870
5893 5894 5896 5897 5898 5899 5900 5901 5901 5902 5902 5902 5902 5902 5902 5902 5902 5902 5901 5901 5900 5899 5898 5898 5897 5896 5894 5893 5892 5891 5890 5888 5887 5885 5883 5882 5880 5878 5876 5874 5873 5871 5869
5891 5892 5894 5895 5897 5897 5898 5899 5900 5900 5901 5901 5901 5901 5901 5901 5901 5901 5900 5900 5899 5898 5897 5897 5896 5895 5893 5892 5891 5890 5888 5887 5886 5884 5882 5880 5878 5877 5875 5873 5871 5869 5867
5889 5890 5892 5893 5895 5896 5897 5898 5898 5899 5900 5900 5900 5901 5901 5900 5900 5900 5899 5899 5898 5897 5896 5895 5894 5893 5892 5891 5890 5888 5887 5886 5884 5882 5881 5879 5877 5875 5873 5871 5869 5867 5865
5887 5888 5890 5891 5893 5894 5895 5896 5897 5897 5898 5899 5899 5899 5899 5899 5899 5899 5898 5897 5897 5896 5895 5894 5893 5892 5891 5890 5889 5887 5886 5884 5882 5881 5879 5877 5875 5873 5871 5869 5867 5865 5863
5884 5886 5888 5889 5891 5892 5893 5894 5895 5896 5896 5897 5897 5898 5898 5898 5898 5897 5897 5896 5895 5895 5894 5893 5892 5891 5890 5888 5887 5886 5884 5882 5881 5879 5877 5875 5873 5871 5868 5866 5864 5862 5860
5881 5883 5885 5887 5888 5890 5891 5892 5893 5894 5895 5895 5896 5896 5896 5896 5896 5896 5895 5895 5894 5893 5892 5891 5890 5889 5888 5887 5885 5884 5882 5880 5878 5876 5874 5872 5870 5868 5866 5864 5862 5860 5858
5877 5880 5882 5884 5886 5887 5889 5890 5891 5892 5893 5893 5894 5894 5894 5894 5894 5894 5893 5893 5892 5891 5891 5889 5888 5887 5886 5885 5883 5882 5880 5878 5876 5874 5872 5870 5867 5865 5863 5861 5859 5857 5854
5874 5876 5879 5881 5883 5884 5886 5887 5889 5890 5891 5891 5892 5892 5892 5892 5892 5892 5891 5891 5890 5889 5888 5887 5886 5885 5884 5882 5881 5879 5877 5876 5874 5871 5869 5867 5864 5862 5860 5857 5855 5853 5851
5870 5873 5875 5877 5879 5881 5883 5885 5886 5887 5888 5889 5889 5889 5890 5890 5890 5889 5889 5889 5888 5887 5886 5885 5884 5883 5881 5880 5878 5877 5875 5873 5871 5868 5866 5864 5861 5859 5856 5854 5851 5849 5846
5866 5868 5871 5873 5876 5878 5880 5881 5883 5884 5885 5886 5886 5887 5887 5887 5887 5887 5887 5886 5886 5885 5884 5883 5882 5880 5879 5877 5875 5874 5872 5870 5867 5865 5863 5860 5858 5855 5853 5850 5847 5845 5842
5861 5864 5867 5869 5872 5874 5876 5878 5879 5881 5882 5883 5883 5884 5884 5884 5884 5884 5884 5883 5883 5882 5881 5880 5879 5877 5876 5874 5872 5870 5868 5866 5864 5861 5859 5856 5854 5851 5849 5846 5843 5840 5837
5856 5859 5862 5865 5867 5869 5872 5874 5875 5877 5878 5879 5880 5880 5880 5881 5881 5880 5880 5880 5879 5879 5878 5877 5876 5874 5872 5870 5869 5866 5864 5862 5859 5857 5855 5852 5849 5846 5844 5841 5838 5835 5832
5851 5854 5857 5860 5863 5865 5867 5869 5871 5872 5874 5875 5876 5876 5877 5877 5877 5877 5876 5876 5875 5875 5874 5873 5872 5870 5868 5867 5865 5862 5860 5858 5855 5852 5850 5847 5844 5841 5838 5835 5832 5829 5826
5845 5849 5852 5855 5857 5860 5862 5864 5866 5867 5869 5870 5871 5872 5872 5872 5872 5872 5872 5872 5871 5871 5870 5868 5867 5866 5864 5862 5860 5858 5855 5853 5850 5847 5844 5841 5838 5835 5832 5829 5826 5823 5820
5839 5842 5846 5849 5852 5854 5857 5858 5860 5862 5864 5865 5866 5867 5867 5868 5868 5868 5867 5867 5866 5866 5865 5863 5862 5861 5859 5857 5855 5852 5850 5847 5845 5842 5838 5835 5832 5829 5825 5822 5819 5816 5813
5833 5836 5840 5843 5846 5848 5851 5852 5854 5856 5858 5859 5860 5861 5862 5862 5862 5862 5862 5861 5861 5860 5859 5858 5857 5855 5853 5851 5849 5847 5844 5841 5838 5835 5831 5828 5825 5822 5818 5815 5812 5809 5805
5826 5829 5833 5836 5839 5842 5844 5846 5848 5850 5851 5853 5854 5855 5856 5856 5857 5857 5856 5855 5855 5854 5853 5852 5851 5849 5847 5845 5842 5840 5837 5835 5831 5828 5824 5821 5817 5814 5810 5807 5804 5801 5798
5819 5823 5826 5829 5832 5834 5837 5839 5841 5843 5845 5846 5847 5848 5849 5850 5850 5850 5850 5849 5848 5848 5847 5846 5844 5842 5841 5838 5836 5833 5830 5827 5824 5820 5817 5813 5809 5805 5802 5799 5795 5792 5789
5812 5816 5819 5822 5824 5827 5829 5832 5834 5836 5838 5839 5841 5842 5842 5843 5843 5843 5843 5842 5841 5841 5840 5838 5837 5835 5833 5831 5828 5826 5824 5820 5816 5812 5808 5805 5801 5797 5793 5790 5787 5784 5781
5804 5808 5812 5814 5817 5819 5821 5824 5826 5828 5830 5832 5833 5834 5835 5835 5836 5836 5836 5835 5834 5833 5832 5831 5829 5827 5826 5823 5820 5817 5816 5814 5810 5805 5800 5796 5792 5788 5785 5781 5778 5775 5772
5795 5799 5803 5806 5809 5811 5814 5816 5818 5820 5822 5824 5825 5826 5827 5827 5827 5828 5827 5827 5826 5825 5824 5823 5821 5819 5817 5815 5812 5808 5806 5804 5802 5799 5794 5788 5783 5779 5775 5772 5769 5766 5762
5786 5790 5794 5797 5800 5803 5805 5807 5810 5811 5813 5815 5816 5817 5818 5818 5819 5819 5819 5818 5818 5817 5816 5814 5812 5810 5808 5806 5804 5800 5797 5794 5791 5788 5786 5781 5775 5770 5766 5763 5759 5756 5753
5777 5781 5784 5788 5791 5793 5796 5798 5800 5802 5804 5806 5807 5808 5809 5809 5810 5810 5810 5809 5809 5808 5807 5805 5803 5801 5799 5797 5794 5792 5788 5784 5780 5777 5775 5772 5767 5763 5758 5754 5750 5747 5744
5768 5771 5775 5778 5781 5783 5786 5788 5791 5793 5794 5796 5797 5798 5799 5800 5800 5800 5800 5799 5799 5798 5797 5796 5794 5792 5790 5787 5785 5782 5778 5775 5771 5767 5764 5761 5758 5754 5749 5745 5741 5738 5734